THORAD AGENA D DEB, 5129

Orbit data source: Space-Track

THORAD AGENA D DEB, 5129 is space debris in SSO originally from a launch on Wed, 08 Apr 1970 UTC launched from the Air Force Western Test Range (AFWTR). Debris objects in space refer to the collection of defunct objects orbiting the Earth. Examples of debris include non-operational satellites, rocket bodies, and fragments generated from explosions, collisions, or faulty payload assembly.

Loading next visibility...
Identifier
5129, 1970-025JN
Orbit
SSO
Country
Flag of USUS
Related business
Manufacturer
Unknown
Mission
Spacecraft
Bus & Motor
Unknown
Mass
Unknown
Launch date (UTC)
1970-04-08 (56 years ago)
Launch vehicle
Unknown
Launch site
Air Force Western Test Range (AFWTR)
Object type
Payload
Rocket body
Debris
Shape & HBR
Unknown shape, 0.1 m
Radar Cross Section
Medium (>0.1 m² and <1 m²)

Expand to show TLE details & history
Last TLE update: 15 hours ago

TLE from 15 hours ago
0 THORAD AGENA D DEB
1 05129U 70025JN  26255.73463440  .00001388  00000-0  17754-2 0  9998
2 05129  99.3116 341.3529 0191769 213.3479 302.1556 13.57346449745517
Epoch: 2026-09-12T17:37Z
TLE epoch observation values (Epoch: 2026-09-12T17:37:52.412Z)
Latitude
26.04088°
Longitude
-90.28365°
Altitude
974.63 km
Speed
7.403 km/s
True Right ascension
11h 03m 41s
True Declination
25° 54' 34"
Sunlit
Object was in daylight at epoch
Visualization orbit readout
Latitude
Unknown
Longitude
Unknown
Altitude
Unknown
Speed
Unknown
Apparent Right ascension
Unknown
Apparent Declination
Unknown
Sunlit
N/A
Visualization observer readout
Local Sidereal Time
00:44:48
Azimuth
Unknown
Elevation
Unknown
Doppler factor
Unknown
Orbital elements
Apogee altitude
1,184.929 km
Perigee altitude
900.315 km
Semi-major axis
7,420.759 km
Eccentricity
0.01918
Inclination
99.3116°
RAAN
341.3529°
Arg. of periapsis
213.3479°
True anomaly
300.27149°
Mean anomaly
302.1556°
Eccentric anomaly
301.21592°
Mean motion
3.39524 °/min
Orbital period
106.03 mins
BSTAR
0.0017754
Loading maneuver chart data...
Computing Atmospheric mass density...

Documentation

Showing up to 5 results
|